Temp
85 85 75 77 78 78 78 77 77 77 77 77 77 77 77 77 77 77 77 77 77 77 78 78 78 76 76 76 75 73 73 73 73 74 77 78 78 78 77 76 78 80 77
88 86 74 76 78 78 77 77 76 76 77 77 77 77 77 77 77 77 77 77 77 77 76 76 76 75 75 74 73 73 72 72 72 72 74 76 77 77 77 76 76 78 77
86 86 78 75 77 77 76 76 76 76 77 77 77 77 77 76 76 76 76 76 76 76 75 75 74 73 73 72 72 72 72 71 71 72 75 83 78 77 77 76 76 77 77
86 86 82 73 76 76 76 76 76 76 77 77 77 77 77 76 76 76 75 75 76 75 74 74 73 72 72 71 71 71 70 70 70 72 81 83 84 77 77 76 76 76 76
85 86 83 73 76 76 76 75 75 76 76 77 77 77 76 76 76 74 74 74 75 74 73 73 72 72 71 70 70 70 69 69 70 75 80 80 82 77 76 76 75 74 74
85 85 75 74 75 76 75 75 75 76 76 76 76 76 76 76 75 74 73 73 73 73 73 72 72 71 70 69 69 68 67 68 70 79 79 78 78 75 75 75 74 74 73
84 84 81 73 74 75 75 75 75 75 75 76 76 76 76 75 75 73 72 72 72 72 72 72 71 69 69 68 67 66 66 67 77 76 76 78 74 74 74 74 74 74 74
84 82 82 71 71 73 74 74 74 75 75 75 75 75 75 74 75 73 72 72 71 71 71 71 69 68 68 67 66 65 64 65 74 75 75 74 70 73 73 73 73 73 73
85 81 81 79 74 68 71 71 72 73 74 74 74 73 73 73 73 71 71 71 71 71 71 70 68 68 67 66 64 63 63 64 74 72 76 73 68 72 72 72 72 72 72
83 82 80 81 79 78 77 67 69 71 71 72 71 70 68 69 69 69 68 69 71 71 70 69 68 67 66 64 62 61 61 65 72 72 72 67 68 71 71 71 71 71 72
79 80 80 79 80 79 79 75 66 67 68 68 68 66 65 74 72 70 68 68 70 69 69 68 67 65 63 61 60 59 61 70 71 70 70 63 67 69 70 70 70 71 71
77 78 79 79 79 79 80 80 76 74 75 75 75 73 74 73 74 72 67 65 67 66 67 67 65 62 60 67 64 61 69 68 69 68 65 62 66 69 69 69 70 70 70
82 80 78 78 79 78 78 79 78 74 72 76 76 74 74 73 73 71 70 68 68 63 67 65 62 64 67 68 67 67 66 67 68 67 61 59 65 68 69 69 70 69 69
83 83 81 79 77 77 78 77 77 77 74 75 76 75 72 71 69 68 69 69 68 67 67 66 64 64 64 64 64 64 64 66 67 66 60 58 61 67 69 69 69 69 69
81 82 82 79 77 77 75 77 76 76 76 76 76 74 72 70 68 68 69 69 68 67 67 64 63 62 62 62 63 63 63 63 63 64 64 57 60 66 68 69 69 70 70
80 80 81 80 77 77 76 75 76 76 77 75 75 73 71 70 68 68 67 67 67 67 66 64 63 62 61 61 61 62 61 62 62 63 64 61 59 62 67 68 69 69 69
83 81 79 80 78 76 75 74 75 75 75 74 73 72 70 69 69 67 66 66 66 65 64 63 63 63 61 61 60 59 60 60 61 61 62 64 62 57 62 66 67 67 67
83 81 80 78 77 75 75 74 74 75 74 74 73 72 69 68 69 67 65 64 65 63 62 62 61 60 60 60 59 59 59 59 59 60 61 63 63 62 58 59 61 63 64
82 81 80 79 76 74 74 75 73 73 73 73 73 71 70 67 67 66 65 64 63 61 61 61 60 60 59 59 59 59 59 58 57 60 59 59 58 59 58 53 54 55 60
76 77 77 77 76 74 73 72 72 72 71 72 71 70 69 67 65 65 64 63 61 59 59 59 58 60 59 58 59 57 57 58 57 57 57 57 56 56 57 56 55 55 58
67 67 70 71 73 72 70 68 68 67 68 69 69 69 68 66 64 63 62 62 59 57 57 58 58 56 56 57 53 53 54 55 55 56 56 55 54 55 55 54 54 55 56
61 61 64 66 69 70 69 68 69 69 69 69 68 67 67 65 63 61 61 60 58 57 57 56 55 53 55 55 54 52 47 49 52 54 54 54 53 53 52 53 53 53 55
57 58 60 62 64 66 67 67 66 65 63 64 64 64 63 63 61 61 60 59 57 57 55 55 54 53 51 52 57 56 49 49 48 51 51 52 52 51 52 51 51 52 53
55 57 59 59 60 61 63 62 61 61 59 63 63 62 61 60 60 60 59 59 57 56 55 53 55 54 54 49 51 54 51 53 48 42 49 50 51 51 50 49 49 50 52
54 54 57 57 57 57 59 59 59 57 59 62 62 58 58 58 57 58 58 57 56 55 54 53 52 52 54 53 51 48 48 50 51 52 43 44 48 49 50 50 49 48 50
54 54 54 54 54 54 55 56 55 55 55 56 57 55 56 56 55 55 55 56 56 55 53 52 51 51 52 54 52 51 50 49 48 50 49 45 43 46 48 48 48 47 48
MSLP
1011.44 1012.08 1013.28 1013.69 1014.09 1014.54 1014.88 1015.15 1015.38 1015.60 1015.82 1016.06 1016.31 1016.50 1016.64 1016.71 1016.81 1016.88 1016.86 1016.96 1017.11 1017.21 1017.36 1017.39 1017.34 1017.56 1017.69 1017.78 1017.89 1017.96 1018.00 1018.01 1017.86 1017.62 1017.39 1017.38 1017.43 1017.65 1017.50 1017.46 1017.15 1017.28 1017.49
1011.25 1012.06 1013.38 1013.71 1014.14 1014.47 1014.88 1015.23 1015.47 1015.65 1015.83 1016.05 1016.24 1016.46 1016.62 1016.78 1016.86 1016.99 1017.06 1017.18 1017.39 1017.52 1017.76 1017.81 1017.88 1018.08 1018.15 1018.22 1018.23 1018.25 1018.25 1018.32 1018.16 1017.95 1017.77 1017.50 1017.72 1017.86 1017.89 1017.85 1017.67 1017.74 1017.67
1011.41 1011.92 1013.25 1013.71 1014.10 1014.56 1014.94 1015.20 1015.55 1015.81 1015.93 1016.03 1016.25 1016.49 1016.68 1016.88 1017.01 1017.10 1017.26 1017.38 1017.62 1017.72 1018.02 1018.09 1018.19 1018.43 1018.50 1018.62 1018.56 1018.62 1018.56 1018.55 1018.58 1018.24 1017.71 1017.24 1017.78 1017.93 1018.19 1018.12 1018.17 1018.11 1017.99
1011.53 1012.04 1012.99 1013.67 1014.07 1014.51 1014.92 1015.32 1015.55 1015.78 1015.95 1016.11 1016.33 1016.51 1016.73 1016.95 1017.10 1017.25 1017.50 1017.47 1017.70 1017.92 1018.08 1018.24 1018.42 1018.57 1018.70 1018.78 1018.75 1018.93 1018.90 1018.74 1018.74 1018.34 1017.73 1017.42 1017.34 1018.08 1018.30 1018.36 1018.38 1018.39 1018.35
1011.67 1012.06 1012.81 1013.76 1014.09 1014.37 1014.82 1015.15 1015.46 1015.76 1015.91 1016.06 1016.30 1016.57 1016.82 1017.03 1017.30 1017.52 1017.62 1017.75 1017.79 1018.05 1018.26 1018.35 1018.53 1018.67 1018.80 1018.94 1018.94 1019.09 1019.00 1018.96 1018.83 1018.37 1018.05 1017.94 1017.52 1018.24 1018.49 1018.60 1018.55 1018.60 1018.60
1011.70 1012.10 1012.86 1013.54 1014.06 1014.39 1014.74 1015.01 1015.32 1015.61 1015.86 1016.02 1016.27 1016.53 1016.80 1017.09 1017.39 1017.63 1017.89 1017.94 1017.99 1018.27 1018.42 1018.55 1018.72 1018.96 1019.12 1019.22 1019.15 1019.28 1019.18 1019.10 1018.85 1018.37 1018.26 1018.26 1018.10 1018.57 1018.79 1018.82 1018.78 1018.92 1018.82
1011.84 1012.23 1012.82 1013.49 1013.85 1014.18 1014.53 1014.89 1015.17 1015.46 1015.72 1015.92 1016.23 1016.50 1016.73 1016.92 1017.33 1017.90 1018.14 1018.19 1018.34 1018.48 1018.69 1018.81 1019.00 1019.27 1019.37 1019.43 1019.65 1019.73 1019.64 1019.36 1018.67 1018.70 1018.73 1018.47 1018.95 1019.02 1019.16 1019.18 1019.14 1019.05 1019.06
1011.64 1012.21 1012.58 1013.54 1013.91 1014.06 1014.31 1014.60 1014.90 1015.20 1015.50 1015.80 1016.15 1016.55 1016.74 1016.92 1017.31 1017.95 1018.20 1018.40 1018.55 1018.71 1018.83 1019.02 1019.34 1019.49 1019.63 1019.72 1019.90 1019.92 1019.90 1019.61 1018.97 1019.13 1019.12 1019.22 1019.55 1019.40 1019.49 1019.42 1019.49 1019.37 1019.29
1011.40 1012.11 1012.52 1013.00 1013.67 1014.04 1014.22 1014.45 1014.71 1014.99 1015.19 1015.55 1015.93 1016.25 1016.49 1016.84 1017.43 1017.99 1018.31 1018.50 1018.70 1018.85 1019.01 1019.28 1019.52 1019.71 1019.88 1020.06 1020.09 1020.13 1020.07 1019.78 1019.32 1019.57 1019.24 1019.38 1019.97 1019.71 1019.66 1019.60 1019.68 1019.58 1019.63
1011.40 1011.77 1012.14 1012.48 1013.05 1013.49 1013.84 1014.27 1014.45 1014.67 1015.03 1015.37 1015.68 1015.98 1016.41 1016.80 1017.44 1017.89 1018.26 1018.51 1018.74 1018.90 1019.16 1019.43 1019.71 1019.92 1020.11 1020.42 1020.39 1020.51 1020.38 1020.13 1019.79 1019.74 1019.75 1020.28 1020.15 1019.92 1019.89 1019.90 1019.81 1019.78 1019.82
1011.14 1011.44 1011.81 1012.17 1012.46 1012.91 1013.32 1013.85 1014.50 1014.68 1014.90 1015.21 1015.59 1015.91 1016.37 1016.71 1017.25 1017.67 1018.03 1018.29 1018.60 1018.88 1019.29 1019.56 1019.87 1020.17 1020.46 1020.63 1020.73 1020.58 1020.45 1020.07 1020.06 1020.05 1020.09 1020.78 1020.44 1020.10 1020.11 1020.12 1020.03 1019.98 1019.88
1010.76 1011.05 1011.40 1011.78 1011.99 1012.29 1012.66 1013.10 1013.94 1014.39 1014.72 1014.92 1015.14 1015.62 1015.83 1016.37 1016.70 1017.17 1017.68 1018.32 1018.65 1018.97 1019.39 1019.69 1019.91 1020.32 1020.47 1020.07 1020.49 1020.56 1020.15 1020.32 1020.26 1020.35 1020.74 1020.94 1020.49 1020.28 1020.22 1020.22 1020.15 1020.11 1020.02
1009.93 1010.60 1011.25 1011.37 1011.57 1011.87 1012.05 1012.38 1012.87 1013.67 1014.12 1014.26 1014.59 1014.98 1015.56 1016.03 1016.48 1017.09 1017.55 1018.16 1018.52 1019.02 1019.36 1019.71 1020.26 1020.13 1019.96 1019.96 1020.20 1020.32 1020.52 1020.39 1020.38 1020.55 1021.14 1021.16 1020.65 1020.32 1020.18 1020.17 1020.16 1020.16 1020.17
1009.09 1009.35 1010.07 1010.81 1011.21 1011.43 1011.82 1012.19 1012.42 1012.78 1013.44 1013.66 1013.84 1014.45 1015.34 1015.73 1016.31 1016.84 1017.10 1017.58 1017.98 1018.56 1018.83 1019.31 1019.74 1019.85 1020.16 1020.28 1020.37 1020.44 1020.47 1020.36 1020.44 1020.65 1021.04 1021.18 1020.98 1020.50 1020.25 1020.30 1020.27 1020.24 1020.22
1008.37 1008.42 1008.82 1009.74 1010.37 1010.87 1011.34 1011.40 1011.87 1012.09 1012.49 1012.94 1013.34 1013.89 1014.70 1015.27 1015.98 1016.47 1016.78 1017.06 1017.48 1018.14 1018.56 1019.13 1019.53 1019.94 1020.12 1020.30 1020.45 1020.58 1020.68 1020.75 1020.83 1020.76 1020.91 1021.22 1021.03 1020.55 1020.45 1020.42 1020.33 1020.28 1020.34
1007.65 1008.03 1008.61 1009.13 1009.83 1010.41 1010.73 1011.15 1011.26 1011.52 1011.86 1012.44 1012.88 1013.56 1014.34 1014.86 1015.34 1015.79 1016.38 1016.82 1017.34 1017.79 1018.31 1018.86 1019.32 1019.66 1019.94 1020.27 1020.55 1020.73 1020.93 1021.05 1021.15 1021.14 1020.98 1021.17 1021.20 1020.93 1020.68 1020.66 1020.61 1020.48 1020.72
1006.96 1007.59 1008.03 1008.50 1009.20 1009.70 1010.06 1010.61 1010.97 1011.14 1011.58 1012.01 1012.56 1013.18 1014.02 1014.61 1014.97 1015.46 1015.96 1016.47 1017.06 1017.81 1018.36 1018.70 1019.06 1019.46 1019.87 1020.28 1020.65 1021.03 1021.21 1021.30 1021.25 1021.28 1021.25 1021.14 1021.33 1021.48 1021.23 1020.90 1020.94 1020.94 1021.15
1006.62 1006.94 1007.55 1008.32 1008.80 1009.28 1009.60 1009.90 1010.41 1010.71 1011.29 1011.70 1012.26 1012.88 1013.68 1014.42 1014.80 1015.19 1015.58 1016.08 1016.53 1017.35 1018.00 1018.39 1018.83 1019.31 1019.72 1020.17 1020.58 1020.95 1021.18 1021.38 1021.48 1021.41 1021.37 1021.21 1021.29 1021.46 1021.88 1021.90 1021.86 1021.84 1021.81
1006.86 1006.95 1006.94 1007.52 1008.35 1009.02 1009.51 1009.85 1010.17 1010.54 1010.85 1011.26 1011.78 1012.43 1013.01 1013.76 1014.42 1015.02 1015.48 1015.92 1016.41 1017.09 1017.51 1017.90 1018.38 1018.75 1019.23 1019.80 1020.25 1020.67 1020.96 1021.32 1021.56 1021.46 1021.52 1021.56 1021.93 1021.83 1022.07 1022.68 1022.73 1022.63 1022.43
1007.83 1007.68 1007.50 1007.65 1008.11 1008.89 1009.43 1009.80 1010.04 1010.30 1010.76 1011.18 1011.56 1012.00 1012.69 1013.48 1014.19 1014.67 1015.20 1015.82 1016.57 1017.22 1017.50 1017.81 1018.21 1018.64 1018.94 1019.38 1019.93 1020.62 1021.00 1021.16 1021.44 1021.51 1021.73 1022.05 1022.27 1022.33 1022.40 1022.61 1022.78 1022.86 1022.66
1009.28 1009.10 1008.63 1008.27 1008.16 1008.82 1009.33 1009.68 1010.02 1010.18 1010.55 1010.96 1011.41 1011.91 1012.54 1013.19 1013.77 1014.28 1014.68 1015.25 1016.17 1016.87 1017.36 1017.71 1018.03 1018.52 1018.94 1019.46 1020.15 1020.79 1021.05 1021.19 1021.22 1021.21 1021.44 1021.81 1022.35 1022.66 1022.85 1022.90 1023.00 1022.86 1022.77
1010.82 1010.43 1009.76 1009.21 1009.10 1009.15 1009.63 1009.94 1010.13 1010.16 1010.43 1010.95 1011.44 1011.72 1012.18 1012.85 1013.55 1014.06 1014.34 1014.54 1015.21 1016.17 1016.99 1017.50 1017.92 1018.44 1018.81 1019.10 1019.17 1019.82 1020.55 1021.25 1021.17 1021.10 1021.24 1021.50 1021.95 1022.43 1022.77 1022.95 1023.10 1023.16 1022.82
1011.73 1011.62 1011.26 1010.77 1010.16 1009.99 1010.19 1010.54 1010.79 1011.12 1011.34 1011.27 1011.64 1011.93 1012.43 1012.85 1013.27 1013.66 1014.00 1014.32 1014.71 1014.99 1015.34 1016.17 1017.05 1017.66 1017.93 1018.65 1018.28 1018.25 1019.24 1019.35 1020.31 1020.96 1021.32 1021.49 1021.66 1021.93 1022.13 1022.56 1022.88 1023.08 1022.94
1013.16 1012.90 1012.17 1011.84 1011.60 1011.24 1011.12 1011.11 1011.25 1011.50 1011.58 1011.41 1011.84 1012.24 1012.59 1012.98 1013.33 1013.62 1013.93 1013.91 1013.97 1014.33 1014.99 1015.59 1016.12 1016.64 1017.22 1017.76 1018.46 1017.91 1018.37 1018.39 1018.99 1020.57 1021.14 1021.46 1021.73 1021.75 1021.86 1022.28 1022.62 1022.82 1022.77
1014.10 1013.86 1013.11 1012.83 1012.25 1012.03 1012.29 1012.07 1012.05 1012.17 1012.19 1011.77 1011.72 1012.30 1012.68 1013.14 1013.39 1013.28 1013.59 1013.83 1014.07 1014.24 1014.08 1014.34 1015.01 1015.56 1016.24 1017.02 1017.33 1017.66 1018.17 1018.28 1018.17 1018.29 1019.81 1020.72 1021.34 1021.37 1021.57 1021.85 1022.34 1022.80 1022.92
1014.91 1014.84 1014.35 1013.92 1013.41 1013.16 1012.89 1012.70 1012.92 1013.17 1012.82 1012.55 1012.53 1012.64 1012.54 1012.78 1013.03 1013.20 1013.33 1013.60 1013.72 1013.98 1014.21 1014.25 1014.45 1014.78 1014.88 1015.08 1016.19 1017.30 1017.33 1017.38 1017.36 1017.34 1017.68 1019.27 1019.87 1020.45 1020.88 1021.48 1021.87 1022.22 1022.64
Wind_Speed
9 15 16 15 16 14 13 12 12 11 11 11 10 10 10 10 9 8 10 12 11 11 9 9 10 11 10 8 8 8 8 7 8 8 11 12 13 12 11 12 6 11 12
13 17 15 14 15 15 13 12 11 12 11 11 10 10 11 11 10 10 10 10 9 10 8 8 8 8 7 7 7 7 7 7 7 5 3 12 10 11 12 12 13 10 12
13 16 17 13 15 14 13 13 12 11 11 11 13 12 11 10 10 10 9 10 9 10 9 8 7 6 7 7 7 7 7 7 6 5 6 5 8 8 9 10 9 11 11
12 13 16 13 14 14 13 13 13 12 11 12 12 12 11 10 9 8 6 6 7 8 9 8 7 7 7 6 7 6 6 6 7 7 3 3 5 8 7 8 9 9 10
13 12 14 13 14 14 14 13 12 11 10 11 12 11 11 11 9 7 6 2 4 8 6 7 6 6 6 6 6 5 5 4 3 6 3 4 4 10 9 4 8 9 10
12 13 14 16 13 14 13 13 12 12 12 11 13 12 12 9 7 6 2 3 5 6 5 5 6 6 5 5 6 6 5 3 7 3 3 3 10 9 9 8 8 7 7
11 12 13 14 13 14 14 14 13 12 12 13 13 12 11 11 7 5 5 5 6 6 5 6 6 5 6 6 6 5 5 5 3 4 4 5 9 8 7 8 8 9 9
11 12 12 12 9 11 13 14 14 13 13 14 14 11 10 9 8 7 6 6 6 6 6 7 6 6 6 6 6 7 6 8 4 5 4 7 8 6 5 6 6 6 6
10 12 11 14 13 9 11 12 13 13 15 14 13 10 8 8 8 8 8 8 7 7 7 7 7 7 6 6 7 7 6 8 5 3 3 5 8 4 5 4 3 4 5
10 13 13 13 14 14 13 10 11 12 12 12 13 11 10 10 9 8 6 6 8 8 8 8 8 7 7 6 6 4 1 4 5 3 4 5 5 4 4 4 3 3 3
10 13 13 14 14 15 14 12 9 8 9 10 10 11 10 7 10 11 10 10 10 10 9 9 8 8 8 6 4 1 6 3 2 2 4 6 4 3 2 2 2 2 3
14 14 14 15 15 14 11 13 14 10 10 10 11 11 9 10 8 10 9 8 9 10 10 10 9 8 7 4 4 6 2 2 2 2 5 6 3 2 2 2 2 3 5
15 12 15 15 15 15 11 9 7 8 7 9 14 10 10 8 7 6 5 6 7 8 6 8 7 5 2 1 2 2 2 1 2 2 5 7 6 2 1 2 3 3 3
13 14 16 17 15 15 9 9 9 9 9 9 10 12 9 7 7 7 6 8 7 6 7 6 4 3 4 2 2 2 2 2 2 2 5 7 9 4 1 2 3 4 5
15 15 15 16 16 13 15 10 11 11 10 11 10 12 10 10 9 8 8 7 7 7 6 6 5 5 4 4 3 2 2 2 2 1 2 5 11 5 1 2 3 5 5
14 14 14 15 16 15 14 15 10 10 10 10 9 10 15 10 9 9 8 8 8 7 7 6 6 5 5 4 4 2 2 1 1 1 1 4 11 12 2 2 2 4 7
11 13 13 15 15 17 17 14 11 10 10 10 10 12 15 13 11 11 9 8 8 6 7 6 6 5 5 4 4 3 2 2 2 2 2 2 5 13 14 9 10 8 7
12 11 11 9 13 15 15 12 10 10 9 9 9 9 14 14 12 11 9 9 9 8 8 7 7 6 6 5 5 5 3 3 2 3 3 2 3 4 8 11 10 8 4
10 11 9 10 12 13 13 11 11 11 10 9 9 9 13 14 13 10 8 8 10 8 8 8 8 8 7 6 6 4 4 4 3 4 4 4 3 1 3 6 7 8 5
11 10 7 6 8 10 9 9 8 8 8 8 8 9 12 11 13 11 8 9 9 7 8 8 9 7 7 7 6 5 4 4 4 4 5 4 3 3 3 3 2 3 4
16 15 13 7 5 5 7 7 7 8 7 8 8 10 11 11 13 12 9 10 9 8 8 9 7 9 6 7 6 4 3 4 5 4 5 5 4 4 3 3 1 1 2
19 18 15 12 7 2 4 3 5 5 7 7 6 8 9 10 11 11 11 11 12 9 10 10 10 8 5 9 5 5 4 4 4 6 5 5 6 4 4 3 3 3 3
18 18 17 15 10 6 3 3 3 4 3 5 5 6 6 9 10 12 13 11 12 11 11 13 12 13 8 9 9 4 4 4 6 5 6 6 7 6 6 5 6 5 5
17 14 15 15 14 11 7 3 4 4 5 4 5 4 5 7 10 11 12 13 13 11 12 11 11 11 10 9 6 6 2 0 4 4 6 7 7 7 6 5 6 6 6
16 15 15 16 16 15 13 8 5 4 5 5 2 2 5 6 9 11 13 13 11 10 12 14 15 14 10 8 8 4 4 3 3 3 5 6 6 6 5 6 6 6 7
12 12 13 15 17 16 14 12 10 9 8 6 5 5 3 5 6 10 11 11 11 11 12 11 13 15 13 12 10 5 5 5 5 4 3 7 8 8 7 6 7 7 7
Wind_Direction
165 148 163 176 174 173 166 162 156 152 152 147 142 139 132 123 122 129 120 113 103 96 92 83 80 83 78 82 71 60 55 55 61 62 61 79 77 74 60 31 89 71 58
166 153 167 176 174 172 169 165 160 157 156 154 161 155 151 132 117 115 115 110 119 109 99 90 84 71 68 64 67 58 54 36 38 31 24 99 80 75 64 56 45 65 60
164 158 172 175 172 170 168 163 161 163 168 167 156 149 141 137 127 120 114 120 116 109 103 95 96 87 82 67 56 47 47 35 13 350 312 94 88 71 75 71 66 65 66
164 167 180 173 173 171 170 165 166 170 172 172 162 159 155 145 132 121 112 118 125 102 97 98 91 87 79 73 67 62 49 41 355 312 267 53 89 65 85 79 74 63 78
169 176 181 164 179 175 174 171 173 178 183 182 168 166 156 147 134 100 89 88 122 100 108 101 96 90 80 68 61 52 59 31 320 288 43 16 31 72 50 90 95 71 51
172 181 148 163 182 180 182 181 182 184 190 189 165 164 163 141 135 88 202 139 119 132 118 108 111 102 89 73 63 47 43 6 296 49 39 73 52 56 50 54 76 82 77
180 188 163 170 187 185 184 188 189 192 195 179 167 171 167 157 160 175 191 169 148 144 142 132 112 106 93 80 69 58 41 5 54 54 57 45 56 52 58 54 59 68 67
188 189 194 177 194 194 188 189 192 195 193 184 173 170 157 152 189 198 191 177 167 162 153 138 131 119 106 91 79 59 31 348 77 71 65 72 21 56 49 53 53 59 63
199 191 199 187 196 194 196 196 195 193 188 181 165 159 155 160 198 194 196 185 180 173 157 147 137 130 116 102 84 66 37 350 71 57 71 61 7 42 43 44 51 64 70
207 195 201 199 195 200 197 185 181 181 180 176 166 161 157 136 156 173 175 189 189 172 159 151 146 137 123 115 97 98 63 305 67 80 64 42 357 46 46 38 59 73 81
210 206 205 205 203 204 205 190 190 189 187 177 173 161 153 186 189 183 196 172 188 166 166 161 153 139 126 115 113 155 271 61 75 45 63 9 357 37 61 62 72 103 109
218 211 210 207 209 205 207 201 200 200 207 203 197 182 190 194 199 201 177 170 176 156 167 167 151 144 201 162 152 220 81 77 68 46 72 355 354 18 66 77 99 108 99
219 217 214 213 210 210 209 203 195 198 207 211 208 195 199 195 189 188 172 181 172 160 177 170 160 197 165 164 109 81 90 68 70 59 60 358 352 0 84 127 109 106 107
246 220 210 215 212 210 208 206 209 205 195 213 207 194 197 193 183 188 187 185 183 174 186 177 175 148 158 126 108 98 60 23 34 35 88 7 351 322 93 125 122 113 107
245 229 216 203 211 211 207 206 210 209 200 206 203 193 190 191 188 189 192 183 180 174 179 174 172 171 158 149 137 117 78 53 45 47 77 27 9 345 86 109 130 118 107
240 237 224 215 209 210 213 215 209 211 206 206 200 195 195 194 188 187 187 188 185 180 175 178 174 169 164 149 138 123 108 93 62 105 80 90 42 24 52 90 151 155 102
245 234 228 220 210 213 210 212 218 210 208 205 205 196 194 204 193 188 187 184 186 174 173 172 168 163 156 157 151 155 157 153 145 138 141 151 114 49 39 57 64 79 77
272 241 230 225 224 217 219 212 211 213 208 214 204 197 196 205 200 193 188 187 180 172 177 176 172 170 172 171 161 166 163 160 158 161 162 172 114 113 66 44 48 51 34
300 283 255 229 227 230 227 227 217 218 214 209 208 203 200 198 203 195 194 187 178 178 184 180 176 176 171 173 165 153 159 162 173 171 161 147 93 154 108 59 46 26 352
356 336 316 287 242 236 234 232 227 220 219 219 218 213 203 200 200 199 194 184 177 185 186 184 178 183 172 161 154 152 168 164 181 165 161 159 161 156 161 149 187 74 10
23 13 1 337 275 227 231 227 228 232 216 222 223 219 214 202 200 202 195 184 176 188 191 185 172 174 173 151 133 143 159 183 195 176 173 166 166 185 160 160 178 166 129
19 16 15 10 346 275 257 248 261 245 235 233 231 228 215 212 204 204 201 191 178 182 190 188 182 168 177 176 175 149 169 189 212 198 187 181 176 173 175 185 158 204 229
27 19 20 19 26 22 357 305 267 286 360 281 237 242 221 228 210 208 206 202 188 187 187 184 186 184 175 193 220 166 154 211 142 181 201 195 180 187 173 166 173 182 212
25 23 38 37 33 32 27 21 340 292 274 259 260 265 236 223 230 223 219 215 199 192 194 190 186 190 186 186 211 252 260 341 180 166 204 204 200 198 178 176 173 181 190
29 24 28 34 42 38 27 17 5 328 298 301 313 320 223 234 231 237 224 229 221 212 201 187 186 192 198 194 205 149 207 235 283 163 159 183 207 207 185 183 175 183 193
36 37 34 44 43 36 31 27 14 347 332 322 310 292 244 229 226 234 237 233 227 220 215 203 195 195 198 196 182 201 206 179 194 195 148 167 184 195 185 187 186 184 189